Flag for Australia Weather past 2 weeks in Dubbo, New South Wales, Australia

Now
59 °F

Clear.


Feels Like: 56 °F
Forecast: 38 / 54 °F
Wind: 17 mph from Southwest

Location: Dubbo Airport

Current Time: Aug 2, 2015 at 6:47:02 PM

Latest Report: Aug 2, 2015 at 6:00 PM


Visibility: N/A

Pressure: 29.98 "Hg

Humidity: 68%

Dew point: 48 °F

Location of DubboLocation

Historic Weather in Dubbo — Graph

°F

Dubbo temperature yesterday

Maximum temperature yesterday: 68 °F (at 2:30 PM)
Minimum temperature yesterday: 36 °F (at 4:00 AM)
Average temperature yesterday: 51 °F

Past Weeks' High & Low Weather Summary

 TemperatureHumidityPressure
High72 °F (Aug 2, 2:00 PM)100% (Jul 19, 4:00 AM)30.57 "Hg (Jul 19, 4:00 AM)
Low32 °F (Jul 19, 6:00 AM)34% (Jul 29, 3:00 PM)29.92 "Hg (Aug 2, 2:00 PM)
Average49 °F81%30.27 "Hg
* Reported Jul 18 5:00 PM — Aug 2 5:30 PM, Dubbo, Weather by CustomWeather, © 2015

Note: Actual official high and low records may vary slightly from our data, if they occured in-between our weather recording intervals... More about our weather records

Advertising

Dubbo weather history for previous 24 hours

 ConditionsComfort  
Time TempWeatherWind HumidityBarometerVisibility
5:30 PM
Sun, Aug 2
61 °FClear.18 mph63%29.95 "HgN/A
5:00 PM68 °FClear.7 mph56%29.95 "HgN/A
4:30 PM70 °FClear.10 mph53%29.92 "HgN/A
4:00 PM72 °FSunny.14 mph47%29.92 "HgN/A
3:30 PM72 °FSunny.16 mph47%29.92 "HgN/A
3:00 PM72 °FSunny.16 mph47%29.92 "HgN/A
2:30 PM72 °FScattered clouds.15 mph50%29.92 "HgN/A
2:00 PM72 °FSunny.16 mph53%29.92 "HgN/A
1:30 PM68 °FPartly sunny.12 mph56%29.95 "HgN/A
1:00 PM66 °FOvercast.15 mph52%29.95 "HgN/A
12:30 PM66 °FOvercast.18 mph49%29.95 "HgN/A
12:00 PM66 °FOvercast.13 mph49%29.98 "HgN/A
11:30 AM64 °FOvercast.16 mph52%29.98 "HgN/A
11:00 AM64 °FOvercast.15 mph49%30.01 "HgN/A
10:30 AM64 °FOvercast.16 mph49%30.01 "HgN/A
10:00 AM63 °FMostly cloudy.17 mph52%30.04 "HgN/A
9:30 AM64 °FPartly sunny.16 mph49%30.04 "HgN/A
9:00 AM63 °FScattered clouds.15 mph49%30.04 "HgN/A
8:30 AM59 °FSunny.10 mph59%30.04 "HgN/A
8:00 AM57 °FSunny.9 mph59%30.04 "HgN/A
7:30 AM54 °FSunny.8 mph67%30.04 "HgN/A
7:00 AM54 °FSunny.8 mph67%30.04 "HgN/A
6:30 AM55 °FSunny.8 mph63%30.04 "HgN/A
6:00 AM54 °FSunny.8 mph67%30.01 "HgN/A
5:30 AM54 °FClear.8 mph67%30.01 "HgN/A
5:00 AM55 °FClear.7 mph63%30.01 "HgN/A
4:30 AM55 °FClear.8 mph63%30.01 "HgN/A
4:00 AM54 °FClear.8 mph67%30.01 "HgN/A
3:30 AM54 °FClear.9 mph72%30.01 "HgN/A
3:00 AM55 °FClear.10 mph67%30.01 "HgN/A
2:30 AM55 °FClear.10 mph67%30.04 "HgN/A
2:00 AM54 °FClear.9 mph67%30.04 "HgN/A
1:30 AM54 °FClear.8 mph67%30.04 "HgN/A
1:00 AM55 °FClear.10 mph63%30.04 "HgN/A
12:30 AM55 °FClear.8 mph63%30.04 "HgN/A
12:00 AM54 °FClear.5 mph67%30.04 "HgN/A
11:30 PM
Sat, Aug 1
54 °FClear.6 mph67%30.07 "HgN/A
11:00 PM55 °FClear.12 mph67%30.07 "HgN/A
10:30 PM55 °FOvercast.9 mph72%30.07 "HgN/A
10:00 PM55 °FPassing clouds.7 mph67%30.07 "HgN/A
9:30 PM55 °FPassing clouds.5 mph67%30.07 "HgN/A
9:00 PM55 °FPassing clouds.7 mph72%30.07 "HgN/A
8:30 PM57 °FOvercast.5 mph72%30.07 "HgN/A
8:00 PM54 °FPassing clouds.5 mph82%30.09 "HgN/A
7:30 PM54 °FPassing clouds.8 mph77%30.07 "HgN/A
7:00 PM55 °FPassing clouds.6 mph77%30.09 "HgN/A
6:30 PM55 °FPassing clouds.7 mph72%30.07 "HgN/A
6:00 PM59 °FPassing clouds.7 mph63%30.07 "HgN/A
Weather by CustomWeather, © 2015

See weather overviewHow to use our weather pages